When you browse on this site, cookies collect data to enhance your experience and personalize the content and advertising you see.
Visit our Privacy Policy to learn more. By continuing to use the site, you agree to this use of cookies and data.
  • Em Portugal
  • Lista de países
  • Para 7 dias
  • Temperatura da água
  • Mapas de satélite
  • Mapa do tempo
  • Widgets de tempo
  • user-avatar
    Iniciar Sessão

    Previsão horária em Demidova

    Hoje, 16 Julho, Terça-feira

    Tempo Temperatura Precipitação Vento Pressão Humidade
    00:00 +13°C° 1.2 mm 9 m/s 739 mmHg 94%
    01:00 +12°C° 1.2 mm 9 m/s 739 mmHg 93%
    02:00 +12°C° 0.2 mm 9 m/s 740 mmHg 91%
    03:00 +12°C° 0.2 mm 8 m/s 741 mmHg 90%
    04:00 +14°C° 0 mm 7 m/s 741 mmHg 91%
    05:00 +14°C° 0 mm 7 m/s 742 mmHg 88%
    06:00 +15°C° 0 mm 7 m/s 743 mmHg 85%
    07:00 +16°C° 0 mm 7 m/s 743 mmHg 82%
    08:00 +17°C° 0 mm 7 m/s 744 mmHg 78%
    09:00 +18°C° 0 mm 7 m/s 745 mmHg 74%
    10:00 +20°C° 0 mm 7 m/s 745 mmHg 69%
    11:00 +21°C° 0 mm 7 m/s 746 mmHg 66%
    12:00 +22°C° 0 mm 6 m/s 746 mmHg 64%
    13:00 +23°C° 0 mm 6 m/s 747 mmHg 61%
    14:00 +23°C° 0.1 mm 6 m/s 747 mmHg 62%
    15:00 +23°C° 0.1 mm 5 m/s 748 mmHg 62%
    16:00 +23°C° 0.1 mm 5 m/s 748 mmHg 62%
    17:00 +23°C° 0 mm 4 m/s 749 mmHg 66%
    18:00 +22°C° 0 mm 4 m/s 749 mmHg 71%
    19:00 +21°C° 0 mm 3 m/s 749 mmHg 75%
    20:00 +19°C° 0 mm 3 m/s 750 mmHg 79%
    21:00 +18°C° 0 mm 3 m/s 750 mmHg 83%
    22:00 +16°C° 0 mm 2 m/s 751 mmHg 87%
    23:00 +15°C° 0 mm 2 m/s 751 mmHg 88%

    Amanhã, 17 Julho, Quarta-feira

    Tempo Temperatura Precipitação Vento Pressão Humidade
    00:00 +15°C° 0 mm 1 m/s 751 mmHg 88%
    01:00 +14°C° 0 mm 1 m/s 751 mmHg 88%
    02:00 +14°C° 0 mm 1 m/s 751 mmHg 88%
    03:00 +14°C° 0 mm 1 m/s 752 mmHg 89%
    04:00 +14°C° 0 mm 1 m/s 752 mmHg 89%
    05:00 +14°C° 0 mm 0 m/s 752 mmHg 85%
    06:00 +15°C° 0 mm 0 m/s 752 mmHg 82%
    07:00 +17°C° 0 mm 0 m/s 752 mmHg 78%
    08:00 +18°C° 0 mm 0 m/s 752 mmHg 73%
    09:00 +20°C° 0 mm 0 m/s 752 mmHg 68%
    10:00 +23°C° 0 mm 1 m/s 752 mmHg 63%
    11:00 +22°C° 0 mm 0 m/s 752 mmHg 60%
    12:00 +23°C° 0 mm 0 m/s 752 mmHg 57%
    13:00 +24°C° 0 mm 0 m/s 751 mmHg 53%
    14:00 +24°C° 0 mm 0 m/s 751 mmHg 53%
    15:00 +24°C° 0 mm 0 m/s 751 mmHg 52%
    16:00 +26°C° 0 mm 1 m/s 751 mmHg 52%
    17:00 +25°C° 0 mm 1 m/s 751 mmHg 59%
    18:00 +24°C° 0 mm 1 m/s 751 mmHg 66%
    19:00 +23°C° 0 mm 1 m/s 751 mmHg 73%
    20:00 +21°C° 0 mm 1 m/s 751 mmHg 76%
    21:00 +20°C° 0 mm 1 m/s 751 mmHg 80%
    22:00 +16°C° 0 mm 0 m/s 751 mmHg 83%
    23:00 +18°C° 0 mm 1 m/s 751 mmHg 85%

    Depois de amanhã, 18 Julho, Quinta-feira

    Tempo Temperatura Precipitação Vento Pressão Humidade
    00:00 +16°C° 0 mm 1 m/s 750 mmHg 86%
    01:00 +16°C° 0 mm 1 m/s 750 mmHg 87%
    02:00 +16°C° 0 mm 1 m/s 750 mmHg 88%
    03:00 +15°C° 0 mm 1 m/s 750 mmHg 89%
    04:00 +15°C° 0 mm 2 m/s 750 mmHg 91%
    05:00 +16°C° 0 mm 2 m/s 750 mmHg 87%
    06:00 +17°C° 0 mm 2 m/s 750 mmHg 83%
    07:00 +18°C° 0 mm 3 m/s 749 mmHg 79%
    08:00 +20°C° 0 mm 3 m/s 749 mmHg 74%
    09:00 +21°C° 0 mm 3 m/s 749 mmHg 68%
    10:00 +24°C° 0 mm 3 m/s 749 mmHg 63%
    11:00 +24°C° 0 mm 3 m/s 749 mmHg 61%
    12:00 +25°C° 0 mm 3 m/s 748 mmHg 60%
    13:00 +26°C° 0 mm 3 m/s 748 mmHg 58%
    14:00 +26°C° 0 mm 3 m/s 748 mmHg 60%
    15:00 +26°C° 0 mm 3 m/s 747 mmHg 61%
    16:00 +26°C° 0 mm 3 m/s 747 mmHg 62%
    17:00 +25°C° 0 mm 3 m/s 747 mmHg 67%
    18:00 +24°C° 0 mm 2 m/s 747 mmHg 72%
    19:00 +23°C° 0 mm 2 m/s 747 mmHg 77%
    20:00 +21°C° 0 mm 2 m/s 746 mmHg 79%
    21:00 +20°C° 0 mm 3 m/s 746 mmHg 81%
    22:00 +19°C° 0 mm 3 m/s 746 mmHg 82%
    23:00 +18°C° 0 mm 3 m/s 746 mmHg 82%

    19 Julho, Sexta-feira

    Tempo Temperatura Precipitação Vento Pressão Humidade
    00:00 +17°C° 0 mm 3 m/s 746 mmHg 82%
    01:00 +17°C° 0 mm 3 m/s 746 mmHg 83%
    02:00 +16°C° 0 mm 2 m/s 746 mmHg 84%
    03:00 +16°C° 0 mm 2 m/s 746 mmHg 86%
    04:00 +15°C° 0 mm 2 m/s 746 mmHg 88%
    05:00 +16°C° 0 mm 2 m/s 746 mmHg 84%
    06:00 +17°C° 0 mm 2 m/s 746 mmHg 80%
    07:00 +18°C° 0 mm 3 m/s 746 mmHg 75%
    08:00 +20°C° 0 mm 3 m/s 746 mmHg 71%
    09:00 +23°C° 0 mm 2 m/s 747 mmHg 66%
    10:00 +24°C° 0 mm 2 m/s 747 mmHg 61%
    11:00 +26°C° 0 mm 2 m/s 747 mmHg 58%
    12:00 +27°C° 0 mm 1 m/s 747 mmHg 54%
    13:00 +28°C° 0 mm 1 m/s 747 mmHg 51%
    14:00 +28°C° 0 mm 1 m/s 747 mmHg 51%
    15:00 +28°C° 0 mm 1 m/s 747 mmHg 52%
    16:00 +28°C° 0 mm 1 m/s 747 mmHg 52%
    17:00 +27°C° 0 mm 1 m/s 747 mmHg 59%
    18:00 +26°C° 0 mm 1 m/s 747 mmHg 67%
    19:00 +25°C° 0 mm 1 m/s 747 mmHg 74%
    20:00 +22°C° 0 mm 0 m/s 747 mmHg 77%
    21:00 +20°C° 0 mm 0 m/s 747 mmHg 81%
    22:00 +19°C° 0 mm 0 m/s 747 mmHg 84%
    23:00 +19°C° 0.4 mm 0 m/s 747 mmHg 86%

    20 Julho, Sábado

    Tempo Temperatura Precipitação Vento Pressão Humidade
    00:00 +18°C° 0.4 mm 0 m/s 748 mmHg 87%
    01:00 +18°C° 0.4 mm 0 m/s 748 mmHg 89%
    02:00 +20°C° 0.1 mm 1 m/s 748 mmHg 91%
    03:00 +19°C° 0.1 mm 1 m/s 748 mmHg 92%
    04:00 +19°C° 0.1 mm 1 m/s 748 mmHg 94%
    05:00 +19°C° 0 mm 1 m/s 748 mmHg 93%
    06:00 +19°C° 0 mm 2 m/s 748 mmHg 92%
    07:00 +20°C° 0 mm 2 m/s 749 mmHg 91%
    08:00 +23°C° 0 mm 2 m/s 749 mmHg 84%
    09:00 +24°C° 0 mm 2 m/s 749 mmHg 76%
    10:00 +26°C° 0 mm 2 m/s 749 mmHg 69%
    11:00 +26°C° 0 mm 2 m/s 749 mmHg 65%
    12:00 +27°C° 0 mm 2 m/s 749 mmHg 61%
    13:00 +28°C° 0 mm 3 m/s 749 mmHg 56%
    14:00 +28°C° 0 mm 3 m/s 749 mmHg 56%
    15:00 +28°C° 0 mm 3 m/s 748 mmHg 56%
    16:00 +28°C° 0 mm 3 m/s 748 mmHg 55%
    17:00 +27°C° 0.1 mm 2 m/s 748 mmHg 62%
    18:00 +26°C° 0.1 mm 2 m/s 749 mmHg 69%
    19:00 +25°C° 0.1 mm 2 m/s 749 mmHg 76%
    20:00 +23°C° 0 mm 2 m/s 749 mmHg 80%
    21:00 +20°C° 0 mm 2 m/s 749 mmHg 85%
    22:00 +18°C° 0 mm 2 m/s 749 mmHg 89%
    23:00 +18°C° 0 mm 2 m/s 749 mmHg 90%

    21 Julho, Domingo

    Tempo Temperatura Precipitação Vento Pressão Humidade
    00:00 +17°C° 0 mm 2 m/s 749 mmHg 92%
    01:00 +17°C° 0 mm 2 m/s 749 mmHg 94%
    02:00 +16°C° 0 mm 2 m/s 749 mmHg 94%
    03:00 +16°C° 0 mm 2 m/s 749 mmHg 95%
    04:00 +16°C° 0 mm 2 m/s 748 mmHg 96%
    05:00 +17°C° 0 mm 2 m/s 749 mmHg 93%
    06:00 +18°C° 0 mm 2 m/s 749 mmHg 91%
    07:00 +19°C° 0 mm 3 m/s 749 mmHg 88%
    08:00 +20°C° 0 mm 3 m/s 749 mmHg 83%
    09:00 +21°C° 0 mm 3 m/s 749 mmHg 78%
    10:00 +22°C° 0 mm 4 m/s 749 mmHg 73%
    11:00 +23°C° 0.1 mm 4 m/s 749 mmHg 71%
    12:00 +23°C° 0.1 mm 5 m/s 749 mmHg 68%
    13:00 +25°C° 0.1 mm 5 m/s 749 mmHg 66%
    14:00 +23°C° 0.1 mm 5 m/s 749 mmHg 66%
    15:00 +23°C° 0.1 mm 5 m/s 749 mmHg 66%
    16:00 +23°C° 0.1 mm 5 m/s 748 mmHg 66%
    17:00 +22°C° 0.1 mm 4 m/s 748 mmHg 70%
    18:00 +22°C° 0.1 mm 3 m/s 748 mmHg 75%
    19:00 +21°C° 0.1 mm 3 m/s 748 mmHg 80%
    20:00 +19°C° 0 mm 2 m/s 748 mmHg 84%
    21:00 +18°C° 0 mm 2 m/s 748 mmHg 89%
    22:00 +17°C° 0 mm 2 m/s 748 mmHg 93%
    23:00 +16°C° 0 mm 2 m/s 748 mmHg 94%
    Mostrar mais